Regional Weather Roundup
Issued by NWS Green Bay, WI

Home | Current Version | Previous Version | Graphics & Text | Print | Product List | Glossary Off
Versions: 1 2 3 4 5 6 7 8 9 10 11 12 13 14 15 16 17 18 19 20 21 22 23 24 25 26 27 28 29 30 31 32 33 34 35 36 37 38 39 40 41 42 43 44 45 46 47 48 49 50

000
ASUS43 KGRB 060511
RWRGRB

NORTH-CENTRAL AND NORTHEAST WISCONSIN REGIONAL WEATHER ROUNDUP
NATIONAL WEATHER SERVICE GREEN BAY WI
1200 AM CDT FRI MAY 06 2016

WIZ005-009-010>012-018-019-060600-
NORTH CENTRAL WISCONSIN

CITY           SKY/WX    TMP DP  RH WIND       PRES   REMARKS
IRONWOOD         N/A     59  39  47 S10       29.81F
MANITOWISH WTR CLEAR     52  39  61 S5        29.88F
ARBOR VITAE    CLEAR     54  40  58 S3        29.90S
EAGLE RIVER    CLEAR     52  37  55 CALM      29.90S
LAND O LAKES   CLEAR     53  38  55 SW5       29.90F
RHINELANDER    CLEAR     52  37  56 SW5       29.91F
PHILLIPS       CLEAR     53  38  56 S5        29.89S
ANTIGO         CLEAR     49  39  69 CALM      29.92F
TOMAHAWK       CLEAR     45  38  77 CALM      29.91F
MERRILL        CLEAR     48  42  79 CALM      29.93S
$$

WIZ013-073-060600-
NORTHEAST WISCONSIN

CITY           SKY/WX    TMP DP  RH WIND       PRES   REMARKS
IRON MOUNTAIN  PTCLDY    50  38  63 CALM      29.88F
MARINETTE      CLOUDY    48  41  76 SE8       29.90
OCONTO         CLOUDY    50  46  84 S6        29.91F
$$

WIZ017-030-035>037-045-060600-
CENTRAL WISCONSIN

CITY           SKY/WX    TMP DP  RH WIND       PRES   REMARKS
MEDFORD        PTCLDY    52  40  64 S7        29.91S
WAUSAU         CLEAR     56  44  64 S3        29.91F
MOSINEE        CLEAR     52  37  58 S5        29.94S
MARSHFIELD     PTCLDY    54  39  57 S5        29.91F
WISC RAPIDS    PTCLDY    52  38  58 S3        29.94S
STEVENS POINT  PTCLDY    45  36  69 CALM      29.94S
WAUPACA        CLOUDY    52  37  57 CALM      29.93F
SHAWANO        MOCLDY    58  35  42 CALM      29.91F
CLINTONVILLE   MOCLDY    55  34  44 SW6       29.91F
WAUTOMA        CLOUDY    48  38  68 CALM      29.95F
$$

WIZ038-039-048-051-060600-
FOX VALLEY

CITY           SKY/WX    TMP DP  RH WIND       PRES   REMARKS
NWS GREEN BAY  MOCLDY    52  43  71 S7        29.92F
APPLETON       PTCLDY    50  36  57 CALM      29.92S
OSHKOSH        CLEAR     49  38  65 S8        29.93F
FOND DU LAC    CLEAR     48  39  71 S7        29.95S
$$

WIZ022-050-052-060600-
EAST CENTRAL WISCONSIN

CITY           SKY/WX    TMP DP  RH WIND       PRES   REMARKS
EPHRAIM        FAIR      48  37  66 S8        29.90F
STURGEON BAY   MOCLDY    48  37  66 S10       29.94F
MANITOWOC      CLOUDY    47  39  74 VRB5      29.95F
SHEBOYGAN      CLEAR     42  37  82 S5        29.95F
$$

LMZ563-521-522-541>543-060600-
LAKESHORE

STATION/POSITION TIME  TEMP    WIND        PRES    VSBY  WAVE
                       AIR SEA DIR/SP/G                  HT/PER
                 (UTC) (F)     (DEG/KT/KT) (MB)    (MI)  (FT/S)
SHEBOYGAN LKSHOR 0500   46     200/  7/  8 1014.9F
KEWAUNEE LKSHORE 0400   47     190/  4/  6 1013.5S
ALGOMA MARINA    0400          220/  8/  9   N/A
NORTHPORT PIER   0400   48     190/  5/  8 1013.2F
N MID LAKE BUOY  0450   41 39  200/ 10/ 10 1013.3F         0
CHAMBERS ISLAND  0400   49     160/  5/  9 1013.2F
MENOMINEE LKSHOR 0400   49     170/ 13/ 15 1012.0F
$$




USA.gov is the U.S. government's official web portal to all federal, state and local government web resources and services.